{"data":{"norad_id":51870,"intl_designator":"2022-022U","name":"STARLINK-3591","alt_names":[],"object_type":"PAYLOAD","status":"ACTIVE","operator":null,"country":"US","launch_date":"2022-03-03","launch_site_code":"AFETR","launch_vehicle":null,"mission":null,"orbit_class":"UNKNOWN","rcs_meters":null,"size_class":null,"mass_kg":null,"dimensions":null,"purposes":["comms"],"wikipedia_slug":null,"has_3d_model":false,"image_url":null,"decayed_at":null,"tle_current":{"epoch":"2026-09-19T11:04:44.668704Z","epoch_age_seconds":141977,"freshness":"FRESH","line1":"1 51870U 22022U   26262.46162811  .00003478  00000+0  11049-3 0  9995","line2":"2 51870  53.1592 208.2565 0001731  76.4452 283.6744 15.35424352252564","mean_motion":15.35424352,"eccentricity":0.0001731,"inclination_deg":53.1592,"raan_deg":208.2565,"arg_perigee_deg":76.4452,"mean_anomaly_deg":283.6744,"bstar":0.00011049,"rev_number":25256,"period_min":93.785147938047,"perigee_km":458.47672025083,"apogee_km":460.84396569096,"semimajor_km":6837.7973429709,"source":"CELESTRAK","updated_at":"2026-09-20T09:00:39.948168Z"}}}